Escanaba, MI

8:24 AM EST on February 24, 2017 (GMT -0500)
Delta County

Weather History for KESC - March, 2012

Change the Weather History Date:

Wednesday, March 7, 2012

  Actual Average Record
Temperature  
Mean Temperature 40 °F -  
Max Temperature 44 °F 32 °F 46 °F (2016)
Min Temperature 35 °F 14 °F -14 °F (1989)
Degree Days  
Heating Degree Days 26    
Moisture  
Dew Point 32 °F    
Average Humidity 69    
Maximum Humidity 87    
Minimum Humidity 61    
Precipitation  
Precipitation 0.05 in - - ()
Sea Level Pressure  
Sea Level Pressure 29.66 in    
Wind  
Wind Speed 11 mph (SSW)    
Max Wind Speed 18 mph    
Max Gust Speed 25 mph    
Visibility 9 miles    
Events      
Averages and records for this station are not official NWS values.
T = Trace of Precipitation, MM = Missing Value Source: NWS Daily Summary

Daily Weather History Graph

Daily Weather History Graph

Search for Another Location

Airport or City:

Trip Planner

Search our weather history database for the weather conditions in past years. The results will help you decide how hot, cold, wet, or windy it might be!

Date:

Astronomy

Mar. 07, 2012 Rise Set
Actual Time 7:15 AM EST 6:44 PM EST
Civil Twilight 6:45 AM EST 7:13 PM EST
Nautical Twilight 6:11 AM EST 7:48 PM EST
Astronomical Twilight 5:36 AM EST 8:23 PM EST
Moon 6:21 PM EST (3/7) 6:25 AM EST (3/7)
Length of Visible Light 12h 28m
Length of Day
11h 29m
Waxing Gibbous, 99% of the Moon is Illuminated
Mar 7
Waxing Gibbous
Mar 8
Full
Mar 14
Last Quarter
Mar 22
New
Mar 30
First Quarter

Hourly Weather History & Observations

Time (EST) Temp. Windchill Dew Point Humidity Pressure Visibility Wind Dir Wind Speed Gust Speed Precip Events Conditions
12:15 AM 41.0 °F 33.5 °F 32.0 °F 70% 29.72 in 10.0 mi SSW 13.8 mph 21.9 mph N/A   Clear
12:35 AM 39.2 °F 32.5 °F 30.2 °F 70% 29.72 in 10.0 mi SSW 10.4 mph - N/A   Clear
12:55 AM 39.2 °F 34.2 °F 30.2 °F 70% 29.72 in 10.0 mi SSW 6.9 mph - N/A   Clear
1:15 AM 39.2 °F 35.9 °F 30.2 °F 70% 29.72 in 10.0 mi SSW 4.6 mph - N/A   Clear
1:55 AM 35.6 °F 30.7 °F 28.4 °F 75% 29.72 in 10.0 mi SW 5.8 mph - N/A   Clear
2:15 AM 37.4 °F 32.8 °F 28.4 °F 70% 29.72 in 10.0 mi SW 5.8 mph - N/A   Clear
2:55 AM 35.6 °F 29.9 °F 28.4 °F 75% 29.73 in 10.0 mi SSW 6.9 mph - N/A   Clear
3:15 AM 35.6 °F 29.2 °F 28.4 °F 75% 29.73 in 10.0 mi SSW 8.1 mph - N/A   Clear
3:35 AM 37.4 °F 32.1 °F 28.4 °F 70% 29.73 in 10.0 mi SSW 6.9 mph - N/A   Clear
3:55 AM 37.4 °F 32.1 °F 28.4 °F 70% 29.73 in 10.0 mi SSW 6.9 mph - N/A   Clear
4:15 AM 39.2 °F 35.0 °F 28.4 °F 65% 29.72 in 10.0 mi SSW 5.8 mph - N/A   Clear
4:35 AM 39.2 °F 34.2 °F 28.4 °F 65% 29.72 in 10.0 mi SSW 6.9 mph - N/A   Clear
4:55 AM 39.2 °F 33.6 °F 28.4 °F 65% 29.72 in 10.0 mi SSW 8.1 mph - N/A   Clear
5:15 AM 39.2 °F 32.0 °F 28.4 °F 65% 29.73 in 10.0 mi SSW 11.5 mph - N/A   Clear
5:35 AM 39.2 °F 32.5 °F 28.4 °F 65% 29.72 in 10.0 mi SSW 10.4 mph - N/A   Clear
5:55 AM 37.4 °F 29.8 °F 28.4 °F 70% 29.72 in 10.0 mi South 11.5 mph - N/A   Clear
6:15 AM 37.4 °F 29.8 °F 28.4 °F 70% 29.72 in 10.0 mi SSW 11.5 mph 17.3 mph N/A   Clear
6:35 AM 39.2 °F 31.2 °F 28.4 °F 65% 29.72 in 10.0 mi SSW 13.8 mph 19.6 mph N/A   Clear
6:55 AM 39.2 °F 31.2 °F 30.2 °F 70% 29.72 in 10.0 mi SSW 13.8 mph 20.7 mph N/A   Clear
7:35 AM 39.2 °F 30.2 °F 30.2 °F 70% 29.72 in 10.0 mi SSW 17.3 mph 25.3 mph N/A   Scattered Clouds
7:55 AM 41.0 °F 32.5 °F 30.2 °F 65% 29.72 in 10.0 mi SSW 17.3 mph 20.7 mph N/A   Overcast
8:15 AM 41.0 °F 32.2 °F 30.2 °F 65% 29.72 in 10.0 mi SSW 18.4 mph 25.3 mph N/A   Overcast
8:35 AM 39.2 °F 31.6 °F 30.2 °F 70% 29.72 in 10.0 mi SSW 12.7 mph 21.9 mph N/A   Overcast
8:55 AM 39.2 °F 31.6 °F 30.2 °F 70% 29.72 in 10.0 mi SSW 12.7 mph - N/A   Overcast
9:15 AM 41.0 °F 33.9 °F 30.2 °F 65% 29.71 in 10.0 mi SSW 12.7 mph 17.3 mph N/A   Overcast
9:35 AM 41.0 °F 32.8 °F 30.2 °F 65% 29.71 in 10.0 mi SSW 16.1 mph 20.7 mph N/A   Overcast
9:55 AM 42.8 °F 35.4 °F 30.2 °F 61% 29.70 in 10.0 mi SSW 15.0 mph 20.7 mph N/A   Overcast
10:15 AM 42.8 °F 35.4 °F 32.0 °F 66% 29.70 in 10.0 mi SSW 15.0 mph 20.7 mph N/A   Mostly Cloudy
10:35 AM 42.8 °F 35.1 °F 32.0 °F 66% 29.68 in 10.0 mi SSW 16.1 mph 23.0 mph N/A   Scattered Clouds
10:55 AM 44.6 °F 37.8 °F 32.0 °F 61% 29.68 in 10.0 mi SSW 15.0 mph 25.3 mph N/A   Partly Cloudy
11:15 AM 42.8 °F 35.4 °F 32.0 °F 66% 29.68 in 10.0 mi SSW 15.0 mph 23.0 mph N/A   Mostly Cloudy
11:35 AM 42.8 °F 35.8 °F 32.0 °F 66% 29.68 in 10.0 mi SSW 13.8 mph 21.9 mph N/A   Overcast
11:55 AM 42.8 °F 34.8 °F 32.0 °F 66% 29.67 in 10.0 mi SSW 17.3 mph 24.2 mph N/A   Overcast
12:15 PM 42.8 °F 35.1 °F 32.0 °F 66% 29.66 in 10.0 mi SSW 16.1 mph 20.7 mph N/A   Overcast
12:35 PM 42.8 °F 35.4 °F 32.0 °F 66% 29.66 in 10.0 mi SSW 15.0 mph - N/A   Overcast
12:55 PM 42.8 °F 35.8 °F 32.0 °F 66% 29.65 in 10.0 mi SSW 13.8 mph 20.7 mph N/A   Overcast
1:15 PM 42.8 °F 35.8 °F 32.0 °F 66% 29.64 in 10.0 mi SSW 13.8 mph 18.4 mph N/A   Overcast
1:35 PM 42.8 °F 36.2 °F 32.0 °F 66% 29.63 in 10.0 mi SSW 12.7 mph - N/A   Overcast
1:55 PM 44.6 °F 38.4 °F 32.0 °F 61% 29.62 in 10.0 mi SSW 12.7 mph - N/A   Overcast
2:15 PM 42.8 °F 36.6 °F 32.0 °F 66% 29.62 in 10.0 mi SSW 11.5 mph - N/A   Overcast
2:35 PM 42.8 °F 35.1 °F 32.0 °F 66% 29.61 in 10.0 mi South 16.1 mph 23.0 mph N/A   Overcast
2:55 PM 42.8 °F 35.4 °F 32.0 °F 66% 29.61 in 10.0 mi SSW 15.0 mph 20.7 mph N/A   Overcast
3:15 PM 42.8 °F 35.8 °F 32.0 °F 66% 29.61 in 10.0 mi SSW 13.8 mph 20.7 mph N/A   Overcast
3:35 PM 42.8 °F 36.2 °F 32.0 °F 66% 29.60 in 10.0 mi South 12.7 mph 20.7 mph N/A   Overcast
3:55 PM 42.8 °F 35.8 °F 33.8 °F 70% 29.60 in 10.0 mi South 13.8 mph - N/A   Overcast
4:15 PM 42.8 °F 35.4 °F 32.0 °F 66% 29.60 in 10.0 mi South 15.0 mph 18.4 mph N/A   Overcast
4:35 PM 42.8 °F 35.8 °F 32.0 °F 66% 29.59 in 10.0 mi SSW 13.8 mph - N/A   Overcast
4:55 PM 41.0 °F 33.5 °F 32.0 °F 70% 29.59 in 10.0 mi South 13.8 mph 17.3 mph N/A   Overcast
5:15 PM 41.0 °F 33.9 °F 32.0 °F 70% 29.58 in 10.0 mi SSW 12.7 mph - N/A   Overcast
5:35 PM 42.8 °F 36.2 °F 33.8 °F 70% 29.58 in 10.0 mi South 12.7 mph - N/A   Overcast
5:55 PM 42.8 °F 35.8 °F 33.8 °F 70% 29.58 in 10.0 mi SSW 13.8 mph 21.9 mph N/A   Overcast
6:15 PM 42.8 °F 36.6 °F 33.8 °F 70% 29.58 in 10.0 mi SSW 11.5 mph 19.6 mph N/A   Overcast
6:35 PM 42.8 °F 35.8 °F 33.8 °F 70% 29.58 in 10.0 mi SSW 13.8 mph 20.7 mph N/A   Overcast
6:55 PM 42.8 °F 35.8 °F 33.8 °F 70% 29.58 in 10.0 mi SSW 13.8 mph - N/A   Overcast
7:15 PM 42.8 °F 35.4 °F 35.6 °F 76% 29.58 in 7.0 mi SSW 15.0 mph 21.9 mph N/A   Mostly Cloudy
7:35 PM 44.6 °F 38.4 °F 37.4 °F 76% 29.58 in 5.0 mi SSW 12.7 mph - N/A   Overcast
7:55 PM 44.6 °F 37.4 °F 39.2 °F 81% 29.58 in 5.0 mi SSW 16.1 mph - N/A   Overcast
8:15 PM 44.6 °F 39.7 °F 39.2 °F 81% 29.58 in 5.0 mi South 9.2 mph - N/A   Overcast
8:35 PM 44.6 °F 41.4 °F 39.2 °F 81% 29.58 in 3.0 mi SSW 5.8 mph - 0.01 in   Overcast
8:55 PM 44.6 °F 40.7 °F 41.0 °F 87% 29.58 in 2.0 mi SSW 6.9 mph - 0.02 in   Overcast
9:15 PM 44.6 °F 41.4 °F 39.2 °F 81% 29.57 in 1.2 mi South 5.8 mph - 0.02 in   Overcast
9:35 PM 44.6 °F 41.4 °F 39.2 °F 81% 29.58 in 0.8 mi SSW 5.8 mph - 0.03 in   Overcast
9:55 PM 44.6 °F 42.2 °F 39.2 °F 81% 29.58 in 0.8 mi SSW 4.6 mph - 0.03 in   Overcast
10:15 PM 44.6 °F 39.7 °F 39.2 °F 81% 29.59 in 10.0 mi NNW 9.2 mph 17.3 mph N/A   Overcast
10:35 PM 42.8 °F 38.6 °F 35.6 °F 76% 29.62 in 10.0 mi North 6.9 mph 17.3 mph N/A   Overcast
10:55 PM 39.2 °F 34.2 °F 33.8 °F 81% 29.64 in 5.0 mi North 6.9 mph - N/A   Overcast
11:15 PM 39.2 °F 33.0 °F 33.8 °F 81% 29.64 in 5.0 mi NNW 9.2 mph - N/A   Overcast
11:35 PM 39.2 °F 32.0 °F 33.8 °F 81% 29.65 in 5.0 mi NW 11.5 mph - N/A   Overcast